Weather History for KELP - January, 2013

Change the Weather History Date:

Thursday, January 17, 2013

  Actual Average Record
Temperature  
Mean Temperature 40 °F 45 °F  
Max Temperature 57 °F 58 °F 74 °F (1971)
Min Temperature 23 °F 32 °F 16 °F (1964)
Degree Days  
Heating Degree Days 25 20  
Month to date heating degree days 469 352  
Since 1 July heating degree days 1269 1420  
Cooling Degree Days 0 0  
Month to date cooling degree days 0 0  
Year to date cooling degree days 0 0  
Moisture  
Dew Point 13 °F    
Average Humidity 35    
Maximum Humidity 48    
Minimum Humidity 21    
Precipitation  
Precipitation 0.00 in 0.01 in 0.48 in (1892)
Month to date precipitation 0.30 0.21  
Year to date precipitation 0.30 0.21  
Snow  
Snow 0.00 in - - ()
Month to date snowfall 3.1  
Since 1 July snowfall 3.1  
Snow Depth 0.00 in    
Sea Level Pressure  
Sea Level Pressure 30.39 in    
Wind  
Wind Speed 7 mph (NE)    
Max Wind Speed 17 mph    
Max Gust Speed 20 mph    
Visibility 10 miles    
Events      
T = Trace of Precipitation, MM = Missing Value Source: NWS Daily Summary

Daily Weather History Graph

Daily Weather History Graph

Search for Another Location

Airport or City:

Trip Planner

Search our weather history database for the weather conditions in past years. The results will help you decide how hot, cold, wet, or windy it might be!

Date:

Astronomy

Jan. 17, 2013 Rise Set
Actual Time 7:05 AM MST 5:26 PM MST
Civil Twilight 6:39 AM MST 5:52 PM MST
Nautical Twilight 6:09 AM MST 6:22 PM MST
Astronomical Twilight 5:40 AM MST 6:51 PM MST
Moon 10:40 AM MST (1/17) 11:51 PM MST (1/17)
Length of Visible Light 11h 13m
Length of Day
10h 20m
Waxing Crescent, 38% of the Moon is Illuminated
Jan 17
Waxing Crescent
Jan 18
First Quarter
Jan 26
Full
Feb 3
Last Quarter
Feb 10
New

Hourly Weather History & Observations

Time (MST) Temp. Windchill Dew Point Humidity Pressure Visibility Wind Dir Wind Speed Gust Speed Precip Events Conditions
12:51 AM 28.0 °F 21.7 °F 6.1 °F 39% 30.41 in 10.0 mi NE 5.8 mph - N/A   Clear
1:51 AM 26.1 °F - 6.1 °F 43% 30.41 in 10.0 mi Calm Calm - N/A   Clear
2:51 AM 25.0 °F - 6.1 °F 45% 30.42 in 10.0 mi Calm Calm - N/A   Clear
3:51 AM 25.0 °F 18.1 °F 5.0 °F 43% 30.41 in 10.0 mi NNE 5.8 mph - N/A   Clear
4:51 AM 25.0 °F 18.1 °F 6.1 °F 45% 30.42 in 10.0 mi NNE 5.8 mph - N/A   Clear
5:51 AM 26.1 °F 18.4 °F 6.1 °F 43% 30.43 in 10.0 mi NNE 6.9 mph - N/A   Clear
6:51 AM 26.1 °F 16.8 °F 5.0 °F 41% 30.45 in 10.0 mi NNE 9.2 mph - N/A   Clear
7:51 AM 28.9 °F 19.2 °F 7.0 °F 40% 30.47 in 10.0 mi North 11.5 mph - N/A   Clear
8:51 AM 34.0 °F 25.0 °F 7.0 °F 32% 30.48 in 10.0 mi North 12.7 mph - N/A   Clear
9:51 AM 39.9 °F 33.4 °F 8.1 °F 27% 30.48 in 10.0 mi NNE 10.4 mph - N/A   Clear
10:51 AM 45.0 °F 41.2 °F 9.0 °F 23% 30.47 in 10.0 mi North 6.9 mph - N/A   Clear
11:51 AM 48.9 °F - 10.0 °F 21% 30.41 in 10.0 mi Variable 3.5 mph - N/A   Clear
12:51 PM 52.0 °F - 15.1 °F 23% 30.37 in 10.0 mi SE 8.1 mph 17.3 mph N/A   Clear
1:51 PM 54.0 °F - 18.0 °F 24% 30.33 in 10.0 mi East 10.4 mph - N/A   Clear
2:51 PM 55.9 °F - 18.0 °F 23% 30.30 in 10.0 mi East 10.4 mph - N/A   Clear
3:51 PM 55.4 °F - 19.4 °F 25% 30.34 in 10.0 mi SE 10.4 mph - N/A   Clear
4:51 PM 55.0 °F - 19.9 °F 25% 30.32 in 10.0 mi SE 10.4 mph - N/A   Clear
5:51 PM 52.0 °F - 21.0 °F 30% 30.35 in 10.0 mi SE 6.9 mph - N/A   Partly Cloudy
6:51 PM 48.0 °F - 21.0 °F 34% 30.37 in 10.0 mi SE 6.9 mph - N/A   Clear
7:51 PM 43.0 °F 39.5 °F 19.9 °F 40% 30.38 in 10.0 mi ENE 5.8 mph - N/A   Clear
8:51 PM 41.0 °F 39.0 °F 19.9 °F 43% 30.37 in 10.0 mi NE 3.5 mph - N/A   Clear
9:51 PM 39.9 °F 35.1 °F 21.0 °F 47% 30.35 in 10.0 mi NNE 6.9 mph - N/A   Clear
10:51 PM 39.0 °F 34.8 °F 21.0 °F 49% 30.34 in 10.0 mi NNW 5.8 mph - N/A   Clear
11:51 PM 37.4 °F 32.1 °F 21.2 °F 52% 30.36 in 10.0 mi NNE 6.9 mph - N/A   Clear